Regional Weather Roundup
Issued by NWS

Home | Current Version | Previous Version | Text Only | Print | Product List | Glossary Off
Versions: 1 2 3 4 5 6 7 8 9 10 11 12 13 14 15 16 17 18 19 20 21 22 23 24 25 26 27 28 29 30 31 32 33 34 35 36 37 38 39 40 41 42 43 44 45 46 47 48 49 50

000
ASUS43 KDTX 241701
RWRMI
MICHIGAN HOURLY REGIONAL WEATHER ROUNDUP
NATIONAL WEATHER SERVICE DETROIT/PONTIAC MI
1200 PM EST WED DEC 24 2014

NOTE: "FAIR" INDICATES FEW OR NO CLOUDS BELOW 12,000 FEET WITH NO
SIGNIFICANT WEATHER AND/OR OBSTRUCTION TO VISIBILITY.

MIZ047>049-052>055-059>063-066>070-074>076-081>083-241800-
SOUTHEAST LOWER MICHIGAN

CITY           SKY/WX    TMP DP  RH WIND       PRES   REMARKS
ADRIAN         CLOUDY    46  45  96 NE5       29.44F FOG
ALMA           MIX PCPN  38  38 100 NW8       29.54F WCI  32
ANN ARBOR      LGT RAIN  47  45  93 NE7       29.44F FOG
BAD AXE        RAIN      41  41 100 NE12      29.50F
CARO           RAIN      40  40  99 N3        29.49F
DETROIT CITY   FOG       48  46  93 E3        29.47F VSB 1/4
DETROIT        DRZL/FOG  48  47  96 E3        29.45F VSB 1/8
FLINT          CLOUDY    44  41  89 NE8       29.48F FOG
GROSSE ILE     FOG       46  45  93 CALM      29.43F VSB<1/4
HILLSDALE      RAIN      42  42 100 NW10      29.46F
HOWELL         DRIZZLE   40  40 100 N5        29.46F

CITY           SKY/WX    TMP DP  RH WIND       PRES   REMARKS
JACKSON        LGT RAIN  40  39  97 N7        29.47F FOG
LAMBERTVILLE   FOG       46  46 100 CALM      29.43F VSB 1/2
LANSING        LGT RAIN  39  38  96 N8        29.51F FOG     WCI  33
LAPEER         DRIZZLE   41  40  97 NE3       29.49F
MASON          LGT RAIN  38  37  94 N8        29.49F WCI  33
MONROE         FOG       52  50  93 CALM      29.43F VSB 1/4
MT. CLEMENS    DRZL/FOG  45  45 100 CALM      29.45F VSB 1/8
PONTIAC        CLOUDY    42  41  96 NE5       29.45F FOG
PORT HOPE        N/A     38  37  97 NE13      29.51F WCI  30
PORT HURON     DRZL/FOG  43  43 100 NE6       29.47F VSB 3/4
TRI CITIES     RAIN      40  38  93 NE12      29.52F FOG     WCI  33
TROY           CLOUDY    46  44  93 NE5       29.47F FOG
SAGINAW HB     RAIN      37  37 100 N12       29.50F WCI  30
$$
MIZ043>046-050>051-056>058-064>065-071>073-077>080-241800-
SOUTHWEST LOWER MICHIGAN

CITY           SKY/WX    TMP DP  RH WIND       PRES   REMARKS
BATTLE CREEK   LGT RAIN  40  38  93 N8        29.55R FOG     WCI  34
BENTON HARBOR  CLOUDY    40  39  97 N3        29.54F
BIG RAPIDS     LGT SNOW  36  36 100 CALM      29.56F
COLDWATER      MIX PCPN  40  39  98 NW12      29.49F WCI  32
FREMONT        RAIN      37  36  98 CALM      29.56F
HOLLAND        LGT RAIN  42  38  85 NE5       29.55F
GRAND RAPIDS   LGT RAIN  38  35  89 N9        29.55F WCI  31
IONIA          LGT RAIN  39  39  99 N6        29.52F WCI  35
KALAMAZOO      LGT RAIN  40  37  89 N12       29.54F FOG     WCI  33
LUDINGTON      LGT RAIN  38  36  91 E8        29.57F WCI  32
MARSHALL       HVY RAIN  38  38  97 NW6       29.51F WCI  34
MOUNT PLEASANT RAIN      37  37  98 CALM      29.54F
MUSKEGON       RAIN      40  37  89 N3        29.56F FOG
SOUTH HAVEN    CLOUDY    41  38  90 NE5       29.55F
$$
MIZ016>042-241800-
NORTHERN LOWER MICHIGAN

CITY           SKY/WX    TMP DP  RH WIND       PRES   REMARKS
BEAVER ISLAND  CLOUDY    37  37  99 E3        29.58F FOG
BELLAIRE       CLOUDY    38  37  96 CALM      29.57F FOG
CADILLAC       LGT RAIN  35  34  96 CALM      29.55F
CHARLEVOIX     CLOUDY    37  36  99 CALM      29.60F
FRANKFORT      DRIZZLE   37  36  97 CALM      29.58F
GAYLORD        CLOUDY    35  34  96 NE3       29.54F FOG
GRAYLING       LGT RAIN  35  35 100 CALM      29.55F
HARBOR SPRINGS CLOUDY    35  34  97 CALM      29.57F FOG
HOUGHTON LAKE  LGT RAIN  35  34  96 N3        29.55F FOG
MANISTEE       CLOUDY    37  36  93 E5        29.58F WCI  34
OSCODA         LGT RAIN  39  39 100 NE9       29.55F WCI  33
PELLSTON       CLOUDY    34  33  96 CALM      29.57F FOG
ROGERS CITY    CLOUDY    37  37 100 CALM      29.59F FOG
TRAVERSE CITY  LGT RAIN  38  36  92 CALM      29.58F FOG
$$
MIZ007>008-015-241800-
EASTERN UPPER MICHIGAN

CITY           SKY/WX    TMP DP  RH WIND       PRES   REMARKS
KINROSS        CLOUDY    36  36 100 E8        29.58F VSB<1/4 WCI  29
MACKINAC ISLAN FOG       35  35 100 E3        29.57F VSB<1/4
NEWBERRY       FOG       33  33 100 CALM      29.58F VSB<1/4
S. S. MARIE    FOG       35  35 100 E3        29.59F VSB 1
$$
MIZ004>006-011>014-085-241800-
CENTRAL UPPER MICHIGAN

CITY           SKY/WX    TMP DP  RH WIND       PRES   REMARKS
MANISTIQUE     FOG       35  35 100 NW3       29.58F VSB 1/4
ESCANABA       CLOUDY    36  34  93 N6        29.58F WCI  31
MENOMINEE      CLOUDY    34  32  93 N6        29.57F VSB 1/2 WCI  29
SAWYER-GWINN   FOG       32  32 100 N16       29.59F VSB 1   WCI  21
$$
MIZ001>003-009>011-084-241800-
WESTERN UPPER MICHIGAN

CITY           SKY/WX    TMP DP  RH WIND       PRES   REMARKS
IRON MOUNTAIN  CLOUDY    33  31  92 N8        29.59F WCI  26
HOUGHTON       CLOUDY    31  28  89 NE5       29.64F FOG     WCI  26
COPPER HARBOR    N/A     33  28  81 E10       29.65F WCI  25
IRONWOOD       CLOUDY    30  28  93 NE3       29.64F
$$

ABBREVIATIONS USED IN REMARKS
   TC - TEMPERATURE IN CELSIUS
  WCI - WIND CHILL INDEX
   HX - HEAT INDEX
  VSB - VISIBILITY



USA.gov is the U.S. government's official web portal to all federal, state and local government web resources and services.